Time,TemperatureF,DewpointF,PressureIn,WindDirection,WindDirectionDegrees,WindSpeedMPH,WindSpeedGustMPH,Humidity,HourlyPrecipIn,Conditions,Clouds,dailyrainin,SoftwareType,DateUTC
2013-11-14 00:04:00,68.0,59.0,29.75,SSE,158,0.0,0.0,73,0.00,CLR,,0.00,WeatherDisplay:10.37,2013-11-13 13:04:00,
2013-11-14 00:09:00,67.8,58.8,29.75,SSE,158,0.0,0.0,73,0.00,CLR,,0.00,WeatherDisplay:10.37,2013-11-13 13:09:00,
2013-11-14 00:14:00,67.7,58.8,29.75,SSE,152,0.0,0.0,73,0.00,CLR,,0.00,WeatherDisplay:10.37,2013-11-13 13:14:00,
2013-11-14 00:19:00,67.6,58.7,29.74,SE,124,0.0,0.0,73,0.00,CLR,,0.00,WeatherDisplay:10.37,2013-11-13 13:19:00,
2013-11-14 00:24:00,67.3,58.3,29.75,NE,51,0.0,0.0,73,0.00,CLR,,0.00,WeatherDisplay:10.37,2013-11-13 13:24:00,
2013-11-14 00:29:00,67.2,57.8,29.75,NNE,25,0.0,0.0,72,0.00,CLR,,0.00,WeatherDisplay:10.37,2013-11-13 13:29:00,
2013-11-14 00:34:00,67.1,57.7,29.75,NE,42,0.0,0.0,72,0.00,CLR,,0.00,WeatherDisplay:10.37,2013-11-13 13:34:00,
2013-11-14 00:39:00,66.9,57.6,29.75,NE,41,0.0,0.0,72,0.00,CLR,,0.00,WeatherDisplay:10.37,2013-11-13 13:39:00,
2013-11-14 00:44:00,66.7,57.4,29.75,NE,45,0.0,2.0,72,0.00,CLR,,0.00,WeatherDisplay:10.37,2013-11-13 13:44:00,
2013-11-14 00:49:00,66.7,57.4,29.75,East,95,0.0,5.0,72,0.00,CLR,,0.00,WeatherDisplay:10.37,2013-11-13 13:49:00,
2013-11-14 00:54:00,66.7,57.8,29.75,SSW,204,1.0,2.0,73,0.00,CLR,,0.00,WeatherDisplay:10.37,2013-11-13 13:54:00,
2013-11-14 00:59:00,66.8,57.8,29.75,South,188,0.0,3.0,73,0.00,CLR,,0.00,WeatherDisplay:10.37,2013-11-13 13:59:00,
2013-11-14 01:04:00,66.9,58.4,29.75,SSW,210,0.0,0.0,74,0.00,CLR,,0.00,WeatherDisplay:10.37,2013-11-13 14:04:00,
2013-11-14 01:09:00,67.1,58.2,29.75,SW,219,1.0,5.0,73,0.00,CLR,,0.00,WeatherDisplay:10.37,2013-11-13 14:09:00,
2013-11-14 01:14:00,67.3,58.3,29.75,SW,226,0.0,7.0,73,0.00,CLR,,0.00,WeatherDisplay:10.37,2013-11-13 14:14:00,
2013-11-14 01:19:00,67.3,57.9,29.74,WSW,253,0.0,0.0,72,0.00,CLR,,0.00,WeatherDisplay:10.37,2013-11-13 14:19:00,
2013-11-14 01:24:00,67.3,57.9,29.75,SSW,208,0.0,0.0,72,0.00,CLR,,0.00,WeatherDisplay:10.37,2013-11-13 14:24:00,
2013-11-14 01:29:00,67.3,57.6,29.74,NE,55,0.0,0.0,71,0.00,CLR,,0.00,WeatherDisplay:10.37,2013-11-13 14:29:00,
2013-11-14 01:34:00,67.1,57.4,29.74,NNE,28,0.0,0.0,71,0.00,CLR,,0.00,WeatherDisplay:10.37,2013-11-13 14:34:00,
2013-11-14 01:39:00,66.9,56.8,29.74,NE,35,0.0,0.0,70,0.00,CLR,,0.00,WeatherDisplay:10.37,2013-11-13 14:39:00,
2013-11-14 01:44:00,66.9,56.4,29.74,East,82,0.0,0.0,69,0.00,CLR,,0.00,WeatherDisplay:10.37,2013-11-13 14:44:00,
2013-11-14 01:49:00,66.9,56.4,29.74,East,90,0.0,2.0,69,0.00,CLR,,0.00,WeatherDisplay:10.37,2013-11-13 14:49:00,
2013-11-14 01:54:00,66.7,56.6,29.74,ESE,112,0.0,0.0,70,0.00,CLR,,0.00,WeatherDisplay:10.37,2013-11-13 14:54:00,
2013-11-14 01:59:00,66.7,56.6,29.75,South,169,0.0,0.0,70,0.00,CLR,,0.00,WeatherDisplay:10.37,2013-11-13 14:59:00,
2013-11-14 02:04:00,66.6,56.5,29.75,South,177,0.0,0.0,70,0.00,CLR,,0.00,WeatherDisplay:10.37,2013-11-13 15:04:00,
2013-11-14 02:09:00,66.4,56.3,29.74,SSW,194,0.0,0.0,70,0.00,CLR,,0.00,WeatherDisplay:10.37,2013-11-13 15:09:00,
2013-11-14 02:14:00,66.2,56.1,29.75,SSW,204,1.0,2.0,70,0.00,CLR,,0.00,WeatherDisplay:10.37,2013-11-13 15:14:00,
2013-11-14 02:19:00,66.0,55.6,29.74,SSW,206,1.0,4.0,69,0.00,CLR,,0.00,WeatherDisplay:10.37,2013-11-13 15:19:00,
2013-11-14 02:24:00,66.0,55.2,29.74,SSW,212,0.0,5.0,68,0.00,CLR,,0.00,WeatherDisplay:10.37,2013-11-13 15:24:00,
2013-11-14 02:29:00,66.0,54.7,29.74,SW,220,0.0,4.0,67,0.00,CLR,,0.00,WeatherDisplay:10.37,2013-11-13 15:29:00,
2013-11-14 02:34:00,66.0,54.7,29.75,SW,229,1.0,5.0,67,0.00,CLR,,0.00,WeatherDisplay:10.37,2013-11-13 15:34:00,
2013-11-14 02:39:00,66.0,54.3,29.75,SW,228,0.0,2.0,66,0.00,CLR,,0.00,WeatherDisplay:10.37,2013-11-13 15:39:00,
2013-11-14 02:44:00,66.1,54.0,29.75,WSW,246,1.0,5.0,65,0.00,CLR,,0.00,WeatherDisplay:10.37,2013-11-13 15:44:00,
2013-11-14 02:49:00,66.2,53.7,29.75,SW,236,1.0,11.0,64,0.00,CLR,,0.00,WeatherDisplay:10.37,2013-11-13 15:49:00,
2013-11-14 02:54:00,66.4,53.8,29.75,SW,227,3.0,12.0,64,0.00,CLR,,0.00,WeatherDisplay:10.37,2013-11-13 15:54:00,
2013-11-14 02:59:00,66.4,53.4,29.75,SW,215,6.0,12.0,63,0.00,CLR,,0.00,WeatherDisplay:10.37,2013-11-13 15:59:00,
2013-11-14 03:04:00,66.6,53.6,29.75,SSW,211,5.0,8.0,63,0.00,CLR,,0.00,WeatherDisplay:10.37,2013-11-13 16:04:00,
2013-11-14 03:09:00,66.6,53.1,29.75,SW,220,0.0,9.0,62,0.00,CLR,,0.00,WeatherDisplay:10.37,2013-11-13 16:09:00,
2013-11-14 03:14:00,66.6,53.1,29.75,SW,219,5.0,10.0,62,0.00,CLR,,0.00,WeatherDisplay:10.37,2013-11-13 16:14:00,
2013-11-14 03:19:00,66.6,53.1,29.75,SW,214,6.0,13.0,62,0.00,CLR,,0.00,WeatherDisplay:10.37,2013-11-13 16:19:00,
2013-11-14 03:24:00,66.6,53.1,29.75,SW,215,3.0,8.0,62,0.00,CLR,,0.00,WeatherDisplay:10.37,2013-11-13 16:24:00,
2013-11-14 03:29:00,66.6,53.1,29.75,SW,222,5.0,12.0,62,0.00,CLR,,0.00,WeatherDisplay:10.37,2013-11-13 16:29:00,
2013-11-14 03:34:00,66.6,53.1,29.75,SW,217,3.0,35.0,62,0.00,CLR,,0.00,WeatherDisplay:10.37,2013-11-13 16:34:00,
2013-11-14 03:39:00,66.6,53.1,29.75,SW,214,2.0,7.0,62,0.00,CLR,,0.00,WeatherDisplay:10.37,2013-11-13 16:39:00,
2013-11-14 03:44:00,66.6,53.6,29.75,SSW,206,5.0,7.0,63,0.00,CLR,,0.00,WeatherDisplay:10.37,2013-11-13 16:44:00,
2013-11-14 03:49:00,66.6,53.6,29.75,SSW,197,2.0,11.0,63,0.00,CLR,,0.00,WeatherDisplay:10.37,2013-11-13 16:49:00,
2013-11-14 03:54:00,66.4,53.4,29.75,SSW,202,5.0,10.0,63,0.00,CLR,,0.00,WeatherDisplay:10.37,2013-11-13 16:54:00,
2013-11-14 03:59:00,66.4,53.4,29.75,SSW,212,5.0,10.0,63,0.00,CLR,,0.00,WeatherDisplay:10.37,2013-11-13 16:59:00,
2013-11-14 04:04:00,66.4,53.4,29.75,SW,224,2.0,10.0,63,0.00,CLR,,0.00,WeatherDisplay:10.37,2013-11-13 17:04:00,
2013-11-14 04:09:00,66.4,53.4,29.75,SW,225,6.0,10.0,63,0.00,CLR,,0.00,WeatherDisplay:10.37,2013-11-13 17:09:00,
2013-11-14 04:14:00,66.3,52.9,29.75,SW,224,7.0,12.0,62,0.00,CLR,,0.00,WeatherDisplay:10.37,2013-11-13 17:14:00,
2013-11-14 04:19:00,66.2,52.8,29.75,WSW,243,9.0,17.0,62,0.00,CLR,,0.00,WeatherDisplay:10.37,2013-11-13 17:19:00,
2013-11-14 04:24:00,66.0,52.6,29.75,SW,233,5.0,16.0,62,0.00,CLR,,0.00,WeatherDisplay:10.37,2013-11-13 17:24:00,
2013-11-14 04:29:00,66.0,52.6,29.75,SW,215,7.0,11.0,62,0.00,CLR,,0.00,WeatherDisplay:10.37,2013-11-13 17:29:00,
2013-11-14 04:34:00,66.0,52.2,29.75,SW,217,3.0,9.0,61,0.00,CLR,,0.00,WeatherDisplay:10.37,2013-11-13 17:34:00,
2013-11-14 04:39:00,66.0,52.2,29.75,SW,217,3.0,7.0,61,0.00,CLR,,0.00,WeatherDisplay:10.37,2013-11-13 17:39:00,
2013-11-14 04:44:00,66.0,52.2,29.75,SW,219,5.0,7.0,61,0.00,CLR,,0.00,WeatherDisplay:10.37,2013-11-13 17:44:00,
2013-11-14 04:49:00,66.0,52.2,29.75,SW,230,0.0,7.0,61,0.00,CLR,,0.00,WeatherDisplay:10.37,2013-11-13 17:49:00,
2013-11-14 04:54:00,65.9,52.1,29.76,SW,236,1.0,6.0,61,0.00,CLR,,0.00,WeatherDisplay:10.37,2013-11-13 17:54:00,
2013-11-14 04:59:00,65.8,52.0,29.76,WSW,252,0.0,3.0,61,0.00,CLR,,0.00,WeatherDisplay:10.37,2013-11-13 17:59:00,
2013-11-14 05:04:00,65.8,52.0,29.76,WSW,253,0.0,0.0,61,0.00,CLR,,0.00,WeatherDisplay:10.37,2013-11-13 18:04:00,
2013-11-14 05:09:00,65.5,51.7,29.76,SW,216,0.0,2.0,61,0.00,CLR,,0.00,WeatherDisplay:10.37,2013-11-13 18:09:00,
2013-11-14 05:14:00,65.5,51.7,29.76,SSW,205,0.0,0.0,61,0.00,CLR,,0.00,WeatherDisplay:10.37,2013-11-13 18:14:00,
2013-11-14 05:19:00,65.3,51.5,29.77,West,275,0.0,0.0,61,0.00,CLR,,0.00,WeatherDisplay:10.37,2013-11-13 18:19:00,
2013-11-14 05:29:00,64.9,51.6,29.77,WNW,294,0.0,0.0,62,0.00,CLR,,0.00,WeatherDisplay:10.37,2013-11-13 18:29:00,
2013-11-14 05:34:00,64.6,51.3,29.77,WNW,299,0.0,0.0,62,0.00,CLR,,0.00,WeatherDisplay:10.37,2013-11-13 18:34:00,
2013-11-14 05:39:00,64.2,51.4,29.77,NW,312,0.0,0.0,63,0.00,CLR,,0.00,WeatherDisplay:10.37,2013-11-13 18:39:00,
2013-11-14 05:44:00,64.0,51.2,29.77,WNW,295,0.0,0.0,63,0.00,CLR,,0.00,WeatherDisplay:10.37,2013-11-13 18:44:00,
2013-11-14 05:49:00,63.9,51.5,29.78,NW,325,0.0,0.0,64,0.00,CLR,,0.00,WeatherDisplay:10.37,2013-11-13 18:49:00,
2013-11-14 05:54:00,63.7,51.3,29.78,North,5,0.0,0.0,64,0.00,CLR,,0.00,WeatherDisplay:10.37,2013-11-13 18:54:00,
2013-11-14 05:59:00,63.3,50.9,29.78,NNW,348,0.0,0.0,64,0.00,CLR,,0.00,WeatherDisplay:10.37,2013-11-13 18:59:00,
2013-11-14 06:04:00,63.1,50.8,29.78,SW,214,0.0,0.0,64,0.00,CLR,,0.00,WeatherDisplay:10.37,2013-11-13 19:04:00,
2013-11-14 06:09:00,63.0,51.0,29.79,SW,227,0.0,0.0,65,0.00,CLR,,0.00,WeatherDisplay:10.37,2013-11-13 19:09:00,
2013-11-14 06:14:00,63.1,50.7,29.79,WNW,288,0.0,0.0,64,0.00,CLR,,0.00,WeatherDisplay:10.37,2013-11-13 19:14:00,
2013-11-14 06:19:00,63.1,50.8,29.79,North,355,0.0,0.0,64,0.00,CLR,,0.00,WeatherDisplay:10.37,2013-11-13 19:19:00,
2013-11-14 06:24:00,63.1,51.2,29.79,North,11,0.0,0.0,65,0.00,CLR,,0.00,WeatherDisplay:10.37,2013-11-13 19:24:00,
2013-11-14 06:29:00,63.0,51.0,29.79,North,3,0.0,0.0,65,0.00,CLR,,0.00,WeatherDisplay:10.37,2013-11-13 19:29:00,
2013-11-14 06:34:00,63.0,51.0,29.79,NNW,343,0.0,0.0,65,0.00,CLR,,0.00,WeatherDisplay:10.37,2013-11-13 19:34:00,
2013-11-14 06:39:00,63.0,51.4,29.79,NNW,343,0.0,0.0,66,0.00,CLR,,0.00,WeatherDisplay:10.37,2013-11-13 19:39:00,
2013-11-14 06:44:00,63.0,51.4,29.79,NNW,347,0.0,0.0,66,0.00,CLR,,0.00,WeatherDisplay:10.37,2013-11-13 19:44:00,
2013-11-14 06:49:00,63.1,51.6,29.80,WNW,300,0.0,2.0,66,0.00,CLR,,0.00,WeatherDisplay:10.37,2013-11-13 19:49:00,
2013-11-14 06:54:00,63.3,51.3,29.80,WSW,237,1.0,2.0,65,0.00,CLR,,0.00,WeatherDisplay:10.37,2013-11-13 19:54:00,
2013-11-14 06:59:00,63.5,51.5,29.80,SW,217,1.0,3.0,65,0.00,CLR,,0.00,WeatherDisplay:10.37,2013-11-13 19:59:00,
2013-11-14 07:04:00,63.7,51.7,29.80,WSW,241,0.0,3.0,65,0.00,CLR,,0.00,WeatherDisplay:10.37,2013-11-13 20:04:00,
2013-11-14 07:09:00,64.1,51.7,29.80,WSW,249,0.0,0.0,64,0.00,CLR,,0.00,WeatherDisplay:10.37,2013-11-13 20:09:00,
2013-11-14 07:14:00,64.2,51.4,29.80,WNW,300,0.0,3.0,63,0.00,CLR,,0.00,WeatherDisplay:10.37,2013-11-13 20:14:00,
2013-11-14 07:19:00,64.6,51.7,29.80,WSW,256,0.0,2.0,63,0.00,CLR,,0.00,WeatherDisplay:10.37,2013-11-13 20:19:00,
2013-11-14 07:24:00,64.9,51.6,29.80,SW,234,1.0,6.0,62,0.00,CLR,,0.00,WeatherDisplay:10.37,2013-11-13 20:24:00,
2013-11-14 07:29:00,65.2,51.8,29.80,West,281,2.0,7.0,62,0.00,CLR,,0.00,WeatherDisplay:10.37,2013-11-13 20:29:00,
2013-11-14 07:34:00,65.7,51.8,29.80,WNW,286,0.0,2.0,61,0.00,CLR,,0.00,WeatherDisplay:10.37,2013-11-13 20:34:00,
2013-11-14 07:39:00,66.0,52.2,29.81,West,274,5.0,7.0,61,0.00,CLR,,0.00,WeatherDisplay:10.37,2013-11-13 20:39:00,
2013-11-14 07:44:00,66.4,52.6,29.81,West,270,1.0,7.0,61,0.00,CLR,,0.00,WeatherDisplay:10.37,2013-11-13 20:44:00,
2013-11-14 07:49:00,66.9,53.0,29.81,West,279,3.0,7.0,61,0.00,CLR,,0.00,WeatherDisplay:10.37,2013-11-13 20:49:00,
2013-11-14 07:54:00,67.3,52.9,29.81,NW,316,3.0,7.0,60,0.00,CLR,,0.00,WeatherDisplay:10.37,2013-11-13 20:54:00,
2013-11-14 07:59:00,67.8,53.0,29.81,North,352,0.0,0.0,59,0.00,CLR,,0.00,WeatherDisplay:10.37,2013-11-13 20:59:00,
2013-11-14 08:04:00,68.2,53.4,29.82,NNW,333,0.0,0.0,59,0.00,CLR,,0.00,WeatherDisplay:10.37,2013-11-13 21:04:00,
2013-11-14 08:09:00,68.5,53.6,29.82,NNW,336,0.0,0.0,59,0.00,CLR,,0.00,WeatherDisplay:10.37,2013-11-13 21:09:00,
2013-11-14 08:14:00,69.0,53.6,29.82,NNW,332,0.0,0.0,58,0.00,CLR,,0.00,WeatherDisplay:10.37,2013-11-13 21:14:00,
2013-11-14 08:19:00,69.4,53.5,29.82,NW,325,0.0,0.0,57,0.00,CLR,,0.00,WeatherDisplay:10.37,2013-11-13 21:19:00,
2013-11-14 08:24:00,69.6,53.7,29.82,NW,309,5.0,5.0,57,0.00,CLR,,0.00,WeatherDisplay:10.37,2013-11-13 21:24:00,
2013-11-14 08:29:00,70.2,53.7,29.82,WNW,299,1.0,5.0,56,0.00,CLR,,0.00,WeatherDisplay:10.37,2013-11-13 21:29:00,
2013-11-14 08:34:00,70.7,53.7,29.82,NW,309,0.0,0.0,55,0.00,CLR,,0.00,WeatherDisplay:10.37,2013-11-13 21:34:00,
2013-11-14 08:39:00,71.2,53.7,29.83,NW,318,0.0,0.0,54,0.00,CLR,,0.00,WeatherDisplay:10.37,2013-11-13 21:39:00,
2013-11-14 08:44:00,71.7,53.6,29.82,NW,316,0.0,0.0,53,0.00,CLR,,0.00,WeatherDisplay:10.37,2013-11-13 21:44:00,
2013-11-14 08:49:00,72.3,53.7,29.83,NW,313,0.0,1.0,52,0.00,CLR,,0.00,WeatherDisplay:10.37,2013-11-13 21:49:00,
2013-11-14 08:54:00,73.0,53.8,29.82,NW,314,0.0,1.0,51,0.00,CLR,,0.00,WeatherDisplay:10.37,2013-11-13 21:54:00,
2013-11-14 08:59:00,73.4,53.6,29.82,NW,322,0.0,0.0,50,0.00,CLR,,0.00,WeatherDisplay:10.37,2013-11-13 21:59:00,
2013-11-14 09:04:00,73.8,54.0,29.82,NW,325,0.0,0.0,50,0.00,CLR,,0.00,WeatherDisplay:10.37,2013-11-13 22:04:00,
2013-11-14 09:09:00,74.1,54.3,29.82,NNW,335,0.0,0.0,50,0.00,CLR,,0.00,WeatherDisplay:10.37,2013-11-13 22:09:00,
2013-11-14 09:14:00,74.5,54.1,29.82,NNW,337,0.0,0.0,49,0.00,CLR,,0.00,WeatherDisplay:10.37,2013-11-13 22:14:00,
2013-11-14 09:19:00,75.0,54.6,29.82,NNW,330,0.0,0.0,49,0.00,CLR,,0.00,WeatherDisplay:10.37,2013-11-13 22:19:00,
2013-11-14 09:24:00,75.6,54.5,29.82,NNW,327,0.0,0.0,48,0.00,CLR,,0.00,WeatherDisplay:10.37,2013-11-13 22:24:00,
2013-11-14 09:29:00,76.0,54.9,29.82,NNW,327,0.0,0.0,48,0.00,CLR,,0.00,WeatherDisplay:10.37,2013-11-13 22:29:00,
2013-11-14 09:34:00,76.5,55.4,29.82,NNW,328,0.0,0.0,48,0.00,CLR,,0.00,WeatherDisplay:10.37,2013-11-13 22:34:00,
2013-11-14 09:39:00,77.1,55.3,29.82,NNW,328,0.0,0.0,47,0.00,CLR,,0.00,WeatherDisplay:10.37,2013-11-13 22:39:00,
2013-11-14 09:44:00,77.9,55.4,29.82,NNW,330,0.0,0.0,46,0.00,CLR,,0.00,WeatherDisplay:10.37,2013-11-13 22:44:00,
2013-11-14 09:49:00,78.1,55.1,29.82,NNW,335,0.0,0.0,45,0.00,CLR,,0.00,WeatherDisplay:10.37,2013-11-13 22:49:00,
2013-11-14 09:54:00,78.4,55.3,29.81,NNW,339,0.0,0.0,45,0.00,CLR,,0.00,WeatherDisplay:10.37,2013-11-13 22:54:00,
2013-11-14 09:59:00,78.6,54.9,29.81,NNW,336,0.0,0.0,44,0.00,CLR,,0.00,WeatherDisplay:10.37,2013-11-13 22:59:00,
2013-11-14 10:04:00,79.0,54.6,29.82,NNW,336,0.0,0.0,43,0.00,CLR,,0.00,WeatherDisplay:10.37,2013-11-13 23:04:00,
2013-11-14 10:09:00,79.2,55.4,29.81,NNW,339,0.0,0.0,44,0.00,CLR,,0.00,WeatherDisplay:10.37,2013-11-13 23:09:00,
2013-11-14 10:14:00,79.2,55.4,29.81,NNW,339,0.0,0.0,44,0.00,CLR,,0.00,WeatherDisplay:10.37,2013-11-13 23:14:00,
2013-11-14 10:24:00,79.7,54.6,29.80,NNW,339,0.0,0.0,42,0.00,CLR,,0.00,WeatherDisplay:10.37,2013-11-13 23:24:00,
2013-11-14 10:29:00,80.1,55.6,29.80,NNW,339,2.0,2.0,43,0.00,CLR,,0.00,WeatherDisplay:10.37,2013-11-13 23:29:00,
2013-11-14 10:34:00,80.8,55.5,29.80,NNW,346,0.0,3.0,42,0.00,CLR,,0.00,WeatherDisplay:10.37,2013-11-13 23:34:00,
2013-11-14 10:39:00,81.1,55.2,29.80,North,349,1.0,3.0,41,0.00,CLR,,0.00,WeatherDisplay:10.37,2013-11-13 23:39:00,
2013-11-14 10:44:00,81.5,54.9,29.80,NNW,340,0.0,2.0,40,0.00,CLR,,0.00,WeatherDisplay:10.37,2013-11-13 23:44:00,
2013-11-14 10:49:00,82.0,54.6,29.80,NNW,339,0.0,2.0,39,0.00,CLR,,0.00,WeatherDisplay:10.37,2013-11-13 23:49:00,
2013-11-14 10:54:00,82.1,54.7,29.79,NNW,336,0.0,2.0,39,0.00,CLR,,0.00,WeatherDisplay:10.37,2013-11-13 23:54:00,
2013-11-14 10:59:00,82.6,55.2,29.79,NNW,333,0.0,2.0,39,0.00,CLR,,0.00,WeatherDisplay:10.37,2013-11-13 23:59:00,
2013-11-14 11:04:00,83.2,55.0,29.79,NNW,327,0.0,3.0,38,0.00,CLR,,0.00,WeatherDisplay:10.37,2013-11-14 00:04:00,
2013-11-14 11:09:00,83.5,55.9,29.78,NNW,327,0.0,2.0,39,0.00,CLR,,0.00,WeatherDisplay:10.37,2013-11-14 00:09:00,
2013-11-14 11:14:00,83.8,55.5,29.78,NW,325,1.0,2.0,38,0.00,CLR,,0.00,WeatherDisplay:10.37,2013-11-14 00:14:00,
2013-11-14 11:19:00,84.3,55.9,29.79,NW,319,0.0,1.0,38,0.00,CLR,,0.00,WeatherDisplay:10.37,2013-11-14 00:19:00,
2013-11-14 11:24:00,84.7,56.3,29.78,NNW,331,0.0,0.0,38,0.00,CLR,,0.00,WeatherDisplay:10.37,2013-11-14 00:24:00,
2013-11-14 11:29:00,84.9,55.7,29.78,NNW,341,1.0,6.0,37,0.00,CLR,,0.00,WeatherDisplay:10.37,2013-11-14 00:29:00,
2013-11-14 11:34:00,84.9,55.7,29.77,NNW,336,0.0,6.0,37,0.00,CLR,,0.00,WeatherDisplay:10.37,2013-11-14 00:34:00,
2013-11-14 11:39:00,84.7,55.6,29.77,NNW,339,1.0,4.0,37,0.00,CLR,,0.00,WeatherDisplay:10.37,2013-11-14 00:39:00,
2013-11-14 11:44:00,84.9,55.0,29.78,NNW,345,0.0,3.0,36,0.00,CLR,,0.00,WeatherDisplay:10.37,2013-11-14 00:44:00,
2013-11-14 11:49:00,85.2,55.2,29.77,North,358,3.0,6.0,36,0.00,CLR,,0.00,WeatherDisplay:10.37,2013-11-14 00:49:00,
2013-11-14 11:54:00,85.3,54.5,29.77,North,357,2.0,5.0,35,0.00,CLR,,0.00,WeatherDisplay:10.37,2013-11-14 00:54:00,
2013-11-14 11:59:00,85.7,54.9,29.77,NW,324,0.0,5.0,35,0.00,CLR,,0.00,WeatherDisplay:10.37,2013-11-14 00:59:00,
2013-11-14 12:04:00,86.5,54.8,29.76,NW,312,1.0,4.0,34,0.00,CLR,,0.00,WeatherDisplay:10.37,2013-11-14 01:04:00,
2013-11-14 12:09:00,87.0,55.2,29.76,NNW,339,2.0,6.0,34,0.00,CLR,,0.00,WeatherDisplay:10.37,2013-11-14 01:09:00,
2013-11-14 12:14:00,87.4,54.7,29.76,NNW,343,2.0,6.0,33,0.00,CLR,,0.00,WeatherDisplay:10.37,2013-11-14 01:14:00,
2013-11-14 12:19:00,87.4,54.8,29.76,NNW,348,2.0,10.0,33,0.00,CLR,,0.00,WeatherDisplay:10.37,2013-11-14 01:19:00,
2013-11-14 12:24:00,87.6,55.0,29.75,North,349,3.0,9.0,33,0.00,CLR,,0.00,WeatherDisplay:10.37,2013-11-14 01:24:00,
2013-11-14 12:29:00,87.6,54.1,29.75,NNW,341,0.0,0.0,32,0.00,CLR,,0.00,WeatherDisplay:10.37,2013-11-14 01:29:00,
2013-11-14 12:34:00,88.1,54.5,29.75,NNW,331,0.0,6.0,32,0.00,CLR,,0.00,WeatherDisplay:10.37,2013-11-14 01:34:00,
2013-11-14 12:39:00,88.3,53.9,29.75,NNW,335,1.0,5.0,31,0.00,CLR,,0.00,WeatherDisplay:10.37,2013-11-14 01:39:00,
2013-11-14 12:44:00,88.3,53.0,29.75,NNW,343,3.0,12.0,30,0.00,CLR,,0.00,WeatherDisplay:10.37,2013-11-14 01:44:00,
2013-11-14 12:49:00,88.5,53.1,29.75,NNW,345,1.0,3.0,30,0.00,CLR,,0.00,WeatherDisplay:10.37,2013-11-14 01:49:00,
2013-11-14 12:54:00,88.7,52.4,29.75,NNW,338,0.0,5.0,29,0.00,CLR,,0.00,WeatherDisplay:10.37,2013-11-14 01:54:00,
2013-11-14 12:59:00,88.7,52.4,29.74,NW,324,1.0,6.0,29,0.00,CLR,,0.00,WeatherDisplay:10.37,2013-11-14 01:59:00,
2013-11-14 13:04:00,88.9,52.5,29.74,NNW,329,0.0,6.0,29,0.00,CLR,,0.00,WeatherDisplay:10.37,2013-11-14 02:04:00,
2013-11-14 13:09:00,89.4,53.0,29.74,NNW,346,2.0,6.0,29,0.00,CLR,,0.00,WeatherDisplay:10.37,2013-11-14 02:09:00,
2013-11-14 13:14:00,89.8,52.3,29.73,North,357,2.0,7.0,28,0.00,CLR,,0.00,WeatherDisplay:10.37,2013-11-14 02:14:00,
2013-11-14 13:19:00,89.8,52.4,29.73,North,5,2.0,9.0,28,0.00,CLR,,0.00,WeatherDisplay:10.37,2013-11-14 02:19:00,
2013-11-14 13:24:00,90.0,52.5,29.73,North,354,3.0,8.0,28,0.00,CLR,,0.00,WeatherDisplay:10.37,2013-11-14 02:24:00,
2013-11-14 13:29:00,90.1,52.6,29.73,NW,308,2.0,5.0,28,0.00,CLR,,0.00,WeatherDisplay:10.37,2013-11-14 02:29:00,
2013-11-14 13:34:00,90.1,56.3,29.72,West,272,0.0,6.0,32,0.00,CLR,,0.00,WeatherDisplay:10.37,2013-11-14 02:34:00,
2013-11-14 13:39:00,89.8,57.7,29.72,WNW,291,2.0,5.0,34,0.00,CLR,,0.00,WeatherDisplay:10.37,2013-11-14 02:39:00,
2013-11-14 13:44:00,89.2,58.0,29.72,NW,309,1.0,4.0,35,0.00,CLR,,0.00,WeatherDisplay:10.37,2013-11-14 02:44:00,
2013-11-14 13:49:00,88.3,57.2,29.72,North,5,2.0,10.0,35,0.00,CLR,,0.00,WeatherDisplay:10.37,2013-11-14 02:49:00,
2013-11-14 13:54:00,87.6,57.4,29.72,North,352,3.0,7.0,36,0.00,CLR,,0.00,WeatherDisplay:10.37,2013-11-14 02:54:00,
2013-11-14 13:59:00,87.4,57.2,29.71,NW,319,1.0,4.0,36,0.00,CLR,,0.00,WeatherDisplay:10.37,2013-11-14 02:59:00,
2013-11-14 14:04:00,87.4,57.1,29.71,NW,323,3.0,8.0,36,0.00,CLR,,0.00,WeatherDisplay:10.37,2013-11-14 03:04:00,
2013-11-14 14:09:00,87.4,57.2,29.71,North,351,2.0,6.0,36,0.00,CLR,,0.00,WeatherDisplay:10.37,2013-11-14 03:09:00,
2013-11-14 14:14:00,87.4,58.0,29.71,North,360,3.0,6.0,37,0.00,CLR,,0.00,WeatherDisplay:10.37,2013-11-14 03:14:00,
2013-11-14 14:19:00,87.1,57.7,29.70,NNE,24,2.0,7.0,37,0.00,CLR,,0.00,WeatherDisplay:10.37,2013-11-14 03:19:00,
2013-11-14 14:24:00,87.1,58.4,29.71,NE,38,0.0,5.0,38,0.00,CLR,,0.00,WeatherDisplay:10.37,2013-11-14 03:24:00,
2013-11-14 14:29:00,87.1,58.4,29.70,North,357,0.0,4.0,38,0.00,CLR,,0.00,WeatherDisplay:10.37,2013-11-14 03:29:00,
2013-11-14 14:34:00,87.0,58.3,29.70,WSW,249,1.0,14.0,38,0.00,CLR,,0.00,WeatherDisplay:10.37,2013-11-14 03:34:00,
2013-11-14 14:39:00,86.5,57.9,29.70,West,264,1.0,10.0,38,0.00,CLR,,0.00,WeatherDisplay:10.37,2013-11-14 03:39:00,
2013-11-14 14:44:00,86.2,58.3,29.71,NNW,334,1.0,6.0,39,0.00,CLR,,0.00,WeatherDisplay:10.37,2013-11-14 03:44:00,
2013-11-14 14:54:00,85.6,57.8,29.70,NW,324,0.0,2.0,39,0.00,CLR,,0.00,WeatherDisplay:10.37,2013-11-14 03:54:00,
2013-11-14 14:59:00,85.1,57.4,29.70,NW,323,0.0,2.0,39,0.00,CLR,,0.00,WeatherDisplay:10.37,2013-11-14 03:59:00,
2013-11-14 15:04:00,84.7,57.7,29.70,NW,310,3.0,6.0,40,0.00,CLR,,0.00,WeatherDisplay:10.37,2013-11-14 04:04:00,
2013-11-14 15:09:00,84.9,58.5,29.70,NW,312,1.0,6.0,41,0.00,CLR,,0.00,WeatherDisplay:10.37,2013-11-14 04:09:00,
2013-11-14 15:14:00,84.6,57.6,29.70,WNW,293,5.0,7.0,40,0.00,CLR,,0.00,WeatherDisplay:10.37,2013-11-14 04:14:00,
2013-11-14 15:19:00,84.2,57.3,29.70,NW,308,3.0,8.0,40,0.00,CLR,,0.00,WeatherDisplay:10.37,2013-11-14 04:19:00,
2013-11-14 15:24:00,83.8,57.6,29.70,NNW,334,1.0,5.0,41,0.00,CLR,,0.00,WeatherDisplay:10.37,2013-11-14 04:24:00,
2013-11-14 15:29:00,83.6,56.7,29.69,NW,323,0.0,2.0,40,0.00,CLR,,0.00,WeatherDisplay:10.37,2013-11-14 04:29:00,
2013-11-14 15:34:00,83.3,56.5,29.69,WNW,287,2.0,9.0,40,0.00,CLR,,0.00,WeatherDisplay:10.37,2013-11-14 04:34:00,
2013-11-14 15:39:00,83.1,56.3,29.69,NW,307,2.0,5.0,40,0.00,CLR,,0.00,WeatherDisplay:10.37,2013-11-14 04:39:00,
2013-11-14 15:44:00,82.6,56.5,29.70,NW,315,2.0,2.0,41,0.00,CLR,,0.00,WeatherDisplay:10.37,2013-11-14 04:44:00,
2013-11-14 15:49:00,82.2,56.2,29.70,NW,316,0.0,5.0,41,0.00,CLR,,0.00,WeatherDisplay:10.37,2013-11-14 04:49:00,
2013-11-14 15:54:00,81.8,56.4,29.70,NW,323,5.0,7.0,42,0.00,CLR,,0.00,WeatherDisplay:10.37,2013-11-14 04:54:00,
2013-11-14 15:59:00,81.7,56.4,29.70,NNW,329,0.0,7.0,42,0.00,CLR,,0.00,WeatherDisplay:10.37,2013-11-14 04:59:00,
2013-11-14 16:04:00,81.1,55.2,29.70,NNW,332,0.0,2.0,41,0.00,CLR,,0.00,WeatherDisplay:10.37,2013-11-14 05:04:00,
2013-11-14 16:09:00,81.0,55.0,29.71,NNW,329,3.0,5.0,41,0.00,CLR,,0.00,WeatherDisplay:10.37,2013-11-14 05:09:00,
2013-11-14 16:14:00,80.9,55.0,29.70,NNW,328,2.0,5.0,41,0.00,CLR,,0.00,WeatherDisplay:10.37,2013-11-14 05:14:00,
2013-11-14 16:19:00,80.8,54.9,29.70,NNW,332,0.0,7.0,41,0.00,CLR,,0.00,WeatherDisplay:10.37,2013-11-14 05:19:00,
2013-11-14 16:24:00,80.4,54.6,29.70,NW,312,2.0,7.0,41,0.00,CLR,,0.00,WeatherDisplay:10.37,2013-11-14 05:24:00,
2013-11-14 16:29:00,80.4,54.6,29.70,NW,314,0.0,8.0,41,0.00,CLR,,0.00,WeatherDisplay:10.37,2013-11-14 05:29:00,
2013-11-14 16:34:00,80.4,54.5,29.71,NW,312,0.0,8.0,41,0.00,CLR,,0.00,WeatherDisplay:10.37,2013-11-14 05:34:00,
2013-11-14 16:39:00,80.1,55.0,29.70,NW,316,2.0,3.0,42,0.00,CLR,,0.00,WeatherDisplay:10.37,2013-11-14 05:39:00,
2013-11-14 16:44:00,79.9,55.4,29.71,NNW,343,0.0,7.0,43,0.00,CLR,,0.00,WeatherDisplay:10.37,2013-11-14 05:44:00,
2013-11-14 16:49:00,79.5,55.7,29.71,NNW,346,2.0,3.0,44,0.00,CLR,,0.00,WeatherDisplay:10.37,2013-11-14 05:49:00,
2013-11-14 16:54:00,79.4,55.6,29.70,NW,324,0.0,2.0,44,0.00,CLR,,0.00,WeatherDisplay:10.37,2013-11-14 05:54:00,
2013-11-14 16:59:00,79.3,54.9,29.70,NW,323,2.0,4.0,43,0.00,CLR,,0.00,WeatherDisplay:10.37,2013-11-14 05:59:00,
2013-11-14 17:04:00,79.4,55.6,29.70,NNW,343,1.0,4.0,44,0.00,CLR,,0.00,WeatherDisplay:10.37,2013-11-14 06:04:00,
2013-11-14 17:09:00,79.5,55.1,29.71,North,360,2.0,9.0,43,0.00,CLR,,0.00,WeatherDisplay:10.37,2013-11-14 06:09:00,
2013-11-14 17:14:00,79.2,54.7,29.71,NNW,331,0.0,9.0,43,0.00,CLR,,0.00,WeatherDisplay:10.37,2013-11-14 06:14:00,
2013-11-14 17:19:00,79.0,55.2,29.70,NNW,327,0.0,2.0,44,0.00,CLR,,0.00,WeatherDisplay:10.37,2013-11-14 06:19:00,
2013-11-14 17:24:00,78.6,54.9,29.71,NNW,345,0.0,2.0,44,0.00,CLR,,0.00,WeatherDisplay:10.37,2013-11-14 06:24:00,
2013-11-14 17:29:00,78.6,54.2,29.71,NNW,339,0.0,0.0,43,0.00,CLR,,0.00,WeatherDisplay:10.37,2013-11-14 06:29:00,
2013-11-14 17:34:00,78.3,53.3,29.71,NNW,340,0.0,0.0,42,0.00,CLR,,0.00,WeatherDisplay:10.37,2013-11-14 06:34:00,
2013-11-14 17:39:00,78.1,53.1,29.71,NNW,339,0.0,0.0,42,0.00,CLR,,0.00,WeatherDisplay:10.37,2013-11-14 06:39:00,
2013-11-14 17:44:00,77.9,53.6,29.71,NNW,341,5.0,7.0,43,0.00,CLR,,0.00,WeatherDisplay:10.37,2013-11-14 06:44:00,
2013-11-14 17:49:00,77.6,53.4,29.72,North,352,3.0,8.0,43,0.00,CLR,,0.00,WeatherDisplay:10.37,2013-11-14 06:49:00,
2013-11-14 17:54:00,77.4,53.7,29.72,NNE,21,2.0,7.0,44,0.00,CLR,,0.00,WeatherDisplay:10.37,2013-11-14 06:54:00,
2013-11-14 17:59:00,77.2,53.6,29.73,NNE,27,0.0,5.0,44,0.00,CLR,,0.00,WeatherDisplay:10.37,2013-11-14 06:59:00,
2013-11-14 18:04:00,77.4,54.4,29.73,NNW,338,1.0,3.0,45,0.00,CLR,,0.00,WeatherDisplay:10.37,2013-11-14 07:04:00,
2013-11-14 18:09:00,77.2,54.2,29.73,NNW,344,1.0,3.0,45,0.00,CLR,,0.00,WeatherDisplay:10.37,2013-11-14 07:09:00,
2013-11-14 18:14:00,77.1,54.1,29.73,North,359,0.0,4.0,45,0.00,CLR,,0.00,WeatherDisplay:10.37,2013-11-14 07:14:00,
2013-11-14 18:19:00,76.9,53.9,29.73,North,357,5.0,8.0,45,0.00,CLR,,0.00,WeatherDisplay:10.37,2013-11-14 07:19:00,
2013-11-14 18:24:00,76.8,53.9,29.73,North,358,1.0,6.0,45,0.00,CLR,,0.00,WeatherDisplay:10.37,2013-11-14 07:24:00,
2013-11-14 18:29:00,76.5,53.6,29.73,North,351,2.0,3.0,45,0.00,CLR,,0.00,WeatherDisplay:10.37,2013-11-14 07:29:00,
2013-11-14 18:34:00,76.2,53.3,29.74,NNW,340,0.0,3.0,45,0.00,CLR,,0.00,WeatherDisplay:10.37,2013-11-14 07:34:00,
2013-11-14 18:44:00,75.7,53.5,29.74,NNW,345,3.0,6.0,46,0.00,CLR,,0.00,WeatherDisplay:10.37,2013-11-14 07:44:00,
2013-11-14 18:49:00,75.6,53.3,29.75,NNW,347,1.0,6.0,46,0.00,CLR,,0.00,WeatherDisplay:10.37,2013-11-14 07:49:00,
2013-11-14 18:54:00,75.4,53.7,29.75,North,349,1.0,6.0,47,0.00,CLR,,0.00,WeatherDisplay:10.37,2013-11-14 07:54:00,
2013-11-14 18:59:00,75.0,54.0,29.75,North,358,1.0,4.0,48,0.00,CLR,,0.00,WeatherDisplay:10.37,2013-11-14 07:59:00,
2013-11-14 19:04:00,75.0,54.0,29.76,North,352,0.0,3.0,48,0.00,CLR,,0.00,WeatherDisplay:10.37,2013-11-14 08:04:00,
2013-11-14 19:09:00,74.8,54.4,29.76,North,8,3.0,7.0,49,0.00,CLR,,0.00,WeatherDisplay:10.37,2013-11-14 08:09:00,
2013-11-14 19:14:00,74.8,54.4,29.76,NNE,19,0.0,6.0,49,0.00,CLR,,0.00,WeatherDisplay:10.37,2013-11-14 08:14:00,
2013-11-14 19:19:00,74.5,54.1,29.76,North,1,1.0,2.0,49,0.00,CLR,,0.00,WeatherDisplay:10.37,2013-11-14 08:19:00,
2013-11-14 19:24:00,74.5,54.6,29.76,North,349,1.0,5.0,50,0.00,CLR,,0.00,WeatherDisplay:10.37,2013-11-14 08:24:00,
2013-11-14 19:29:00,74.3,54.5,29.77,NNW,336,2.0,3.0,50,0.00,CLR,,0.00,WeatherDisplay:10.37,2013-11-14 08:29:00,
2013-11-14 19:34:00,74.1,54.3,29.76,NE,47,0.0,3.0,50,0.00,CLR,,0.00,WeatherDisplay:10.37,2013-11-14 08:34:00,
2013-11-14 19:39:00,73.9,54.7,29.77,North,1,0.0,1.0,51,0.00,CLR,,0.00,WeatherDisplay:10.37,2013-11-14 08:39:00,
2013-11-14 19:44:00,73.9,54.6,29.77,NNE,12,0.0,2.0,51,0.00,CLR,,0.00,WeatherDisplay:10.37,2013-11-14 08:44:00,
2013-11-14 19:49:00,73.8,54.5,29.77,North,10,1.0,3.0,51,0.00,CLR,,0.00,WeatherDisplay:10.37,2013-11-14 08:49:00,
2013-11-14 19:54:00,73.6,54.9,29.77,North,3,0.0,0.0,52,0.00,CLR,,0.00,WeatherDisplay:10.37,2013-11-14 08:54:00,
2013-11-14 19:59:00,73.6,54.9,29.78,North,350,0.0,0.0,52,0.00,CLR,,0.00,WeatherDisplay:10.37,2013-11-14 08:59:00,
2013-11-14 20:04:00,73.4,55.2,29.77,North,7,0.0,5.0,53,0.00,CLR,,0.00,WeatherDisplay:10.37,2013-11-14 09:04:00,
2013-11-14 20:09:00,73.2,55.1,29.78,NNE,21,0.0,2.0,53,0.00,CLR,,0.00,WeatherDisplay:10.37,2013-11-14 09:09:00,
2013-11-14 20:14:00,73.2,55.1,29.78,NNE,26,0.0,0.0,53,0.00,CLR,,0.00,WeatherDisplay:10.37,2013-11-14 09:14:00,
2013-11-14 20:19:00,73.0,55.4,29.78,NNE,15,0.0,0.0,54,0.00,CLR,,0.00,WeatherDisplay:10.37,2013-11-14 09:19:00,
2013-11-14 20:24:00,72.9,55.3,29.78,NNE,18,0.0,0.0,54,0.00,CLR,,0.00,WeatherDisplay:10.37,2013-11-14 09:24:00,
2013-11-14 20:29:00,72.7,55.1,29.79,NNE,12,0.0,0.0,54,0.00,CLR,,0.00,WeatherDisplay:10.37,2013-11-14 09:29:00,
2013-11-14 20:34:00,72.7,55.6,29.79,NNE,12,0.0,0.0,55,0.00,CLR,,0.00,WeatherDisplay:10.37,2013-11-14 09:34:00,
2013-11-14 20:39:00,72.5,55.4,29.79,NNE,15,0.0,4.0,55,0.00,CLR,,0.00,WeatherDisplay:10.37,2013-11-14 09:39:00,
2013-11-14 20:44:00,72.3,55.7,29.79,NNW,341,0.0,3.0,56,0.00,CLR,,0.00,WeatherDisplay:10.37,2013-11-14 09:44:00,
2013-11-14 20:49:00,72.1,55.6,29.79,NNW,343,0.0,1.0,56,0.00,CLR,,0.00,WeatherDisplay:10.37,2013-11-14 09:49:00,
2013-11-14 20:54:00,72.1,55.6,29.80,North,7,0.0,0.0,56,0.00,CLR,,0.00,WeatherDisplay:10.37,2013-11-14 09:54:00,
2013-11-14 20:59:00,72.0,56.0,29.80,NE,56,0.0,0.0,57,0.00,CLR,,0.00,WeatherDisplay:10.37,2013-11-14 09:59:00,
2013-11-14 21:04:00,72.0,55.9,29.80,NE,53,0.0,0.0,57,0.00,CLR,,0.00,WeatherDisplay:10.37,2013-11-14 10:04:00,
2013-11-14 21:09:00,71.8,55.7,29.80,NNW,340,0.0,0.0,57,0.00,CLR,,0.00,WeatherDisplay:10.37,2013-11-14 10:09:00,
2013-11-14 21:14:00,71.8,55.7,29.80,NNW,329,0.0,2.0,57,0.00,CLR,,0.00,WeatherDisplay:10.37,2013-11-14 10:14:00,
2013-11-14 21:19:00,71.8,56.2,29.79,NNW,337,0.0,0.0,58,0.00,CLR,,0.00,WeatherDisplay:10.37,2013-11-14 10:19:00,
2013-11-14 21:24:00,71.5,55.9,29.80,North,352,0.0,1.0,58,0.00,CLR,,0.00,WeatherDisplay:10.37,2013-11-14 10:24:00,
2013-11-14 21:29:00,71.4,56.3,29.80,North,2,1.0,2.0,59,0.00,CLR,,0.00,WeatherDisplay:10.37,2013-11-14 10:29:00,
2013-11-14 21:34:00,71.4,56.3,29.80,North,2,0.0,0.0,59,0.00,CLR,,0.00,WeatherDisplay:10.37,2013-11-14 10:34:00,
2013-11-14 21:39:00,71.2,56.2,29.80,NNW,344,0.0,0.0,59,0.00,CLR,,0.00,WeatherDisplay:10.37,2013-11-14 10:39:00,
2013-11-14 21:44:00,71.2,56.6,29.81,NW,326,0.0,0.0,60,0.00,CLR,,0.00,WeatherDisplay:10.37,2013-11-14 10:44:00,
2013-11-14 21:54:00,70.9,56.3,29.81,NNW,337,0.0,0.0,60,0.00,CLR,,0.00,WeatherDisplay:10.37,2013-11-14 10:54:00,
2013-11-14 21:59:00,70.9,56.8,29.81,NNW,336,0.0,0.0,61,0.00,CLR,,0.00,WeatherDisplay:10.37,2013-11-14 10:59:00,
2013-11-14 22:04:00,70.8,56.7,29.81,NNW,336,0.0,0.0,61,0.00,CLR,,0.00,WeatherDisplay:10.37,2013-11-14 11:04:00,
2013-11-14 22:09:00,70.7,56.6,29.81,NNW,345,0.0,0.0,61,0.00,CLR,,0.00,WeatherDisplay:10.37,2013-11-14 11:09:00,
2013-11-14 22:14:00,70.5,56.4,29.81,SE,133,0.0,0.0,61,0.00,CLR,,0.00,WeatherDisplay:10.37,2013-11-14 11:14:00,
2013-11-14 22:19:00,70.5,56.9,29.81,ESE,122,0.0,0.0,62,0.00,CLR,,0.00,WeatherDisplay:10.37,2013-11-14 11:19:00,
2013-11-14 22:24:00,70.5,56.9,29.81,SE,130,0.0,0.0,62,0.00,CLR,,0.00,WeatherDisplay:10.37,2013-11-14 11:24:00,
2013-11-14 22:29:00,70.3,56.7,29.81,SE,127,0.0,0.0,62,0.00,CLR,,0.00,WeatherDisplay:10.37,2013-11-14 11:29:00,
2013-11-14 22:34:00,70.3,56.7,29.81,SE,130,0.0,0.0,62,0.00,CLR,,0.00,WeatherDisplay:10.37,2013-11-14 11:34:00,
2013-11-14 22:39:00,70.2,56.5,29.81,South,184,0.0,0.0,62,0.00,CLR,,0.00,WeatherDisplay:10.37,2013-11-14 11:39:00,
2013-11-14 22:44:00,70.0,56.4,29.81,SSW,212,0.0,0.0,62,0.00,CLR,,0.00,WeatherDisplay:10.37,2013-11-14 11:44:00,
2013-11-14 22:49:00,69.7,56.5,29.81,SSW,210,0.0,0.0,63,0.00,CLR,,0.00,WeatherDisplay:10.37,2013-11-14 11:49:00,
2013-11-14 22:54:00,69.6,56.5,29.81,SSW,205,0.0,0.0,63,0.00,CLR,,0.00,WeatherDisplay:10.37,2013-11-14 11:54:00,
2013-11-14 23:04:00,69.5,56.4,29.81,SSW,202,0.0,0.0,63,0.00,CLR,,0.00,WeatherDisplay:10.37,2013-11-14 12:04:00,
2013-11-14 23:14:00,69.3,56.6,29.82,SSW,194,0.0,0.0,64,0.00,CLR,,0.00,WeatherDisplay:10.37,2013-11-14 12:14:00,
2013-11-14 23:19:00,69.1,56.4,29.82,South,191,0.0,0.0,64,0.00,CLR,,0.00,WeatherDisplay:10.37,2013-11-14 12:19:00,
2013-11-14 23:24:00,69.1,56.4,29.82,SSW,197,0.0,0.0,64,0.00,CLR,,0.00,WeatherDisplay:10.37,2013-11-14 12:24:00,
2013-11-14 23:29:00,68.9,56.2,29.82,SSW,197,0.0,0.0,64,0.00,CLR,,0.00,WeatherDisplay:10.37,2013-11-14 12:29:00,
2013-11-14 23:34:00,68.7,56.0,29.82,SSW,199,0.0,0.0,64,0.00,CLR,,0.00,WeatherDisplay:10.37,2013-11-14 12:34:00,
2013-11-14 23:39:00,68.7,56.5,29.82,SSW,199,0.0,0.0,65,0.00,CLR,,0.00,WeatherDisplay:10.37,2013-11-14 12:39:00,
2013-11-14 23:44:00,68.6,56.0,29.82,South,191,0.0,0.0,64,0.00,CLR,,0.00,WeatherDisplay:10.37,2013-11-14 12:44:00,
2013-11-14 23:49:00,68.5,56.3,29.81,South,185,0.0,0.0,65,0.00,CLR,,0.00,WeatherDisplay:10.37,2013-11-14 12:49:00,
2013-11-14 23:54:00,68.5,56.2,29.82,SSE,166,0.0,0.0,65,0.00,CLR,,0.00,WeatherDisplay:10.37,2013-11-14 12:54:00,
2013-11-14 23:59:00,68.4,56.1,29.82,South,176,0.0,0.0,65,0.00,CLR,,0.00,WeatherDisplay:10.37,2013-11-14 12:59:00,